Barstow Daggett Airport Daggett US
ICAO: KDAG
IATA: DAG
Category: Medium
Scheduled Services: No

Elevation: 1930 ft
TransAlt. 18000 ft.

Airport Communications:
ASOS:132.175
LOS ANGELES CNTR:132.5
HAWK 86:46.7
RIVERSIDE RDO:122.2
CTAF/UNICOM:123

KDAG Zoom In..

If you have problems with the map follow the link
https://www.worldairports.se/pages/airport.php?
ICAO=KDAG

Runways:

(A) RW 04 length 5123 ft width 100 ft
---- / hdg 35

(B) RW 08 length 6402 ft width 150 ft
---- / hdg 74

(C) RW 22 length 5123 ft width 100 ft
---- / hdg 215

(D) RW 26 length 6402 ft width 150 ft
---- / hdg 254

Location; KDAG
Day. 19 / Time. 22.50 Zulu
* Altimeter: 29.70
* Temperature: 21° c. 69.8°f.
* Wind from: 230° Speed 26 kn with Gusts up to 37 kn.
Dewpoint: 00° c.
Visibility: 10 Statute Miles.
Clouds: Clear (automated report).

KDAG 192250Z AUTO 23026G37KT 10SM CLR 21/00 A2970 RMK AO2 PK WND 25039/2212 SLP043 T02110000


Wind From 230°
Speed 26 kn.

 
 
jpsmedia.com for Web Design worldairports.se 2019   terms of use